Weather in Sel'mentauzen

Russia / Chechen Republic     42°56′04″N   45°52′04″E
temp.,
°C
wind,
m/s
gust,
m/s
humid.,
%
clouds,
%
prec.,
mm/h
press.,
hPa
HPBL,
m
27 november, sat
sat2700:00+1se11840 0.0 102210
03:00+1se11840 0.0 102110
06:00+1sse11770 0.0 102013
09:00+5nne11630 0.0 101977
12:00+8n21575 0.0 1017260
15:00+7n216811 0.0 1017231
18:00+5se117736 0.0 101811
21:00+4sse117178 0.0 101911
28 november, sun
sun2800:00+4sse1166100 0.0 101911
03:00+5s115989 0.0 101812
06:00+5s2254100 0.0 101719
09:00+9se015284 0.0 101630
12:00+11n214685 0.0 1014257
15:00+9nnw115862 0.0 1014141
18:00+6w117448 0.0 101610
21:00+5s117779 0.0 101710
29 november, mon
mon2900:00+6sse1172100 0.0 101612
03:00+6se11705 0.0 101615
06:00+5s11725 0.0 101712
09:00+9sse015970 0.0 101744
12:00+12n2151100 0.0 1016230
15:00+13ne12545 0.0 1015113
18:00+10s21610 0.0 101521
21:00+11s34495 0.0 101352
30 november, tue
tue3000:00+13sse45385 0.0 100974
03:00+12s464063 0.0 100785
06:00+14s4646100 0.0 100588
09:00+17s4637100 0.0 1003121
12:00+13nw46536 0.0 1009717
15:00+13ene126328 0.0 1008618
18:00+10sse22775 0.0 100839
21:00+10e11710 0.0 100315
1 december, wed
wed100:00+10s23590 0.0 99729
03:00+8ssw12711 0.0 99745
06:00+5sse229273 0.0 100351
09:00+11sw11595 0.0 100375
12:00+11nnw466495 0.0 1006911
15:00+5n1279100 1.4 1010560
18:00+4wsw1185100 1.2 1012224
21:00+3se1293100 6.8 1014174